Home   Weather   Lakewood   Past weeks

Flag for USA Past Weather in Lakewood, Colorado, USA — Yesterday and Last 2 Weeks

Now
33 °F

Light snow. Fog.


Feels Like: 26 °F
Forecast: 27 / 42 °F
Wind: 8 mph from East

Location: Centennial Airport

Current Time: Jan 20, 2017 at 9:32:08 am

Latest Report: Jan 20, 2017 at 8:53 am


Visibility: 4 mi

Pressure: 29.49 "Hg (23.90 "Hg at 1683m altitude)

Humidity: 85%

Dew Point: 29 °F

Location of LakewoodLocation

Past Weather in Lakewood — Graph

°F

Lakewood Temperature Yesterday

Maximum temperature yesterday: 51 °F (at 12:53 pm)
Minimum temperature yesterday: 23 °F (at 6:53 am)
Average temperature yesterday: 37 °F

High & Low Weather Summary for the Past Weeks

 TemperatureHumidityPressure
High59 °F (Jan 9, 12:53 pm)96% (Jan 13, 8:53 am)30.53 "Hg (Jan 13, 8:53 am)
Low-6 °F (Jan 6, 7:53 am)13% (Jan 18, 2:53 pm)29.39 "Hg (Jan 11, 11:53 am)
Average31 °F62%30.02 "Hg
* Reported Jan 5 7:53 am — Jan 20 7:53 am, Lakewood, Weather by CustomWeather, © 2017

Note: Actual official high and low records may vary slightly from our data, if they occured in-between our weather recording intervals... More about our weather records

Advertising

Lakewood Weather History for the Previous 24 Hours

Scroll right to see more
 ConditionsComfort  
Time TempWeatherWind HumidityBarometerVisibility
7:53 am
Fri, Jan 20
32 °FLight snow. More clouds than sun.5 mph92%29.50 "Hg9 mi
7:30 am32 °FLight snow. Mostly cloudy.5 mph92%29.46 "Hg7 mi
6:57 am33 °FLight snow. Fog.8 mph88%29.46 "Hg2 mi
5:53 am36 °FMostly cloudy.7 mph64%29.44 "Hg10 mi
4:53 am36 °FOvercast.5 mph70%29.41 "Hg10 mi
3:53 am35 °FOvercast.7 mph56%29.42 "Hg10 mi
2:53 am35 °FOvercast.5 mph56%29.43 "Hg10 mi
1:53 am35 °FPassing clouds.8 mph54%29.43 "Hg10 mi
12:53 am34 °FPassing clouds.3 mph54%29.43 "Hg10 mi
11:53 pm
Thu, Jan 19
31 °FPassing clouds.No wind64%29.46 "Hg10 mi
10:53 pm35 °FPassing clouds.3 mph54%29.49 "Hg10 mi
9:53 pm33 °FPassing clouds.3 mph58%29.51 "Hg10 mi
8:53 pm36 °FPassing clouds.5 mph48%29.55 "Hg10 mi
7:53 pm33 °FPassing clouds.5 mph58%29.59 "Hg10 mi
6:53 pm41 °FPassing clouds.7 mph39%29.58 "Hg10 mi
5:53 pm42 °FPassing clouds.7 mph39%29.55 "Hg10 mi
4:53 pm47 °FPassing clouds.8 mph32%29.53 "Hg10 mi
3:53 pm50 °FPassing clouds.7 mph30%29.50 "Hg10 mi
2:53 pm51 °FPassing clouds.8 mph28%29.51 "Hg10 mi
1:53 pm51 °FPassing clouds.8 mph27%29.48 "Hg10 mi
12:53 pm51 °FPassing clouds.8 mph25%29.52 "Hg10 mi
11:53 am50 °FPassing clouds.6 mph27%29.56 "Hg10 mi
10:53 am45 °FPassing clouds.5 mph38%29.59 "Hg10 mi
9:53 am43 °FPassing clouds.6 mph42%29.62 "Hg10 mi
Weather by CustomWeather, © 2017

See weather overviewHow to use our weather pages